Regional Weather Roundup
Issued by NWS

Home | Current Version | Previous Version | Graphics & Text | Print | Product List | Glossary On
Versions: 1 2 3 4 5 6 7 8 9 10 11 12 13 14 15 16 17 18 19 20 21 22 23 24 25 26 27 28 29 30 31 32 33 34 35 36 37 38 39 40 41 42 43 44 45 46 47 48 49 50
256
ASUS43 KBIS 222202
RWRND

NORTH DAKOTA REGIONAL WEATHER ROUNDUP
NATIONAL WEATHER SERVICE BISMARCK ND
400 PM CST WED FEB 22 2017

NOTE: "FAIR" INDICATES FEW OR NO CLOUDS BELOW 12,000 FEET WITH NO
SIGNIFICANT WEATHER AND/OR OBSTRUCTIONS TO VISIBILITY.


NDZ001>003-009>011-017-222300-
NORTHWEST NORTH DAKOTA

CITY           SKY/WX    TMP DP  RH WIND       PRES   REMARKS
WILLISTON      CLOUDY    34  25  69 N6        29.94S
MINOT          FAIR      35  26  69 NW8       29.90R
MINOT AFB      SUNNY     33  25  72 N10       29.89R
$$

NDZ018>021-031>035-040>046-222300-
SOUTHWEST NORTH DAKOTA

CITY           SKY/WX    TMP DP  RH WIND       PRES   REMARKS
BISMARCK       CLOUDY    35  30  82 N13       29.89R
DICKINSON      CLOUDY    29  26  89 N9        29.87R
GARRISON         N/A     32  28  85 N13       29.89R
HETTINGER ARPT CLOUDY    31  27  85 N13       29.88R
$$

NDZ004>008-012>016-024-026-027-054-222300-
NORTHEAST NORTH DAKOTA

CITY           SKY/WX    TMP DP  RH WIND       PRES   REMARKS
GRAND FORKS    CLOUDY    35  26  69 N16       29.83R
GRND FRKS AFB  CLOUDY    34  28  77 N17       29.83R
DEVILS LAKE    CLOUDY    32  25  75 N15       29.87R
$$

NDZ022-023-025-028>030-036>039-047>053-222300-
SOUTHEAST NORTH DAKOTA

CITY           SKY/WX    TMP DP  RH WIND       PRES   REMARKS
FARGO          LGT SNOW  35  33  92 N22       29.77R FOG
JAMESTOWN      LGT SNOW  32  28  85 N17       29.82R FOG
$$





USA.gov is the U.S. government's official web portal to all federal, state and local government web resources and services.